Change the Weather History Date:

Wednesday, May 1, 2013

  Actual Average Record
Temperature  
Mean Temperature 44 °F -  
Max Temperature 55 °F 73 °F 79 °F (1998)
Min Temperature 33 °F 42 °F 21 °F (1997)
Degree Days  
Heating Degree Days 22    
Moisture  
Dew Point 31 °F    
Average Humidity 84    
Maximum Humidity 93    
Minimum Humidity 45    
Precipitation  
Precipitation 0.37 in - - ()
Sea Level Pressure  
Sea Level Pressure 30.34 in    
Wind  
Wind Speed 3 mph (West)    
Max Wind Speed 9 mph    
Max Gust Speed -    
Visibility 4 miles    
Events Fog , Rain , Snow    
Averages and records for this station are not official NWS values.
T = Trace of Precipitation, MM = Missing Value Source: NWS Daily Summary

Daily Weather History Graph

Daily Weather History Graph

Search for Another Location

Airport or City:

Trip Planner

Search our weather history database for the weather conditions in past years. The results will help you decide how hot, cold, wet, or windy it might be!

Date:

Astronomy

May. 01, 2013 Rise Set
Actual Time 5:52 AM CDT 8:14 PM CDT
Civil Twilight 5:19 AM CDT 8:47 PM CDT
Nautical Twilight 4:37 AM CDT 9:29 PM CDT
Astronomical Twilight 3:51 AM CDT 10:16 PM CDT
Moon 1:24 AM CDT (5/1) 11:31 AM CDT (5/1)
Length of Visible Light 15h 28m
Length of Day
14h 21m
Waning Gibbous, 59% of the Moon is Illuminated
May 1
Waning Gibbous
May 2
Last Quarter
May 9
New
May 17
First Quarter
May 24
Full

Hourly Weather History & Observations

Time (CDT) Temp. Windchill Dew Point Humidity Pressure Visibility Wind Dir Wind Speed Gust Speed Precip Events Conditions
12:53 AM 54.0 °F - 33.1 °F 45% 29.96 in 10.0 mi WSW 3.5 mph - N/A   Overcast
1:53 AM 54.0 °F - 34.0 °F 47% 29.97 in 10.0 mi Variable 3.5 mph - N/A   Overcast
2:53 AM 52.0 °F - 34.0 °F 50% 29.99 in 10.0 mi Calm Calm - N/A   Mostly Cloudy
3:53 AM 50.0 °F - 30.0 °F 46% 30.04 in 10.0 mi West 9.2 mph - N/A   Overcast
4:53 AM 48.0 °F - 28.9 °F 48% 30.09 in 10.0 mi Variable 5.8 mph - N/A   Overcast
5:53 AM 42.1 °F 40.2 °F 39.9 °F 92% 30.09 in 7.0 mi WNW 3.5 mph - 0.03 in Rain Light Rain
6:53 AM 42.1 °F - 37.9 °F 85% 30.15 in 10.0 mi Calm Calm - 0.04 in Rain Light Rain
7:53 AM 41.0 °F - 37.0 °F 86% 30.22 in 9.0 mi Calm Calm - 0.05 in Rain Light Rain
8:53 AM 39.9 °F - 36.0 °F 86% 30.25 in 6.0 mi Calm Calm - 0.03 in Rain Light Rain
9:15 AM 39.2 °F 35.9 °F 35.6 °F 87% 30.23 in 10.0 mi Variable 4.6 mph - 0.00 in Rain Light Rain
9:30 AM 39.2 °F 35.9 °F 35.6 °F 87% 30.24 in 10.0 mi Variable 4.6 mph - 0.00 in Rain Light Rain
10:05 AM 39.2 °F 37.0 °F 35.6 °F 87% 30.24 in 10.0 mi Variable 3.5 mph - N/A   Overcast
10:17 AM 37.4 °F 34.9 °F 35.6 °F 93% 30.24 in 10.0 mi Variable 3.5 mph - N/A   Overcast
10:24 AM 37.4 °F 33.8 °F 35.6 °F 93% 30.24 in 10.0 mi Variable 4.6 mph - N/A   Overcast
10:53 AM 37.0 °F 33.3 °F 34.0 °F 89% 30.27 in 10.0 mi Variable 4.6 mph - N/A   Overcast
11:42 AM 37.4 °F 32.1 °F 33.8 °F 87% 30.25 in 10.0 mi North 6.9 mph - N/A   Overcast
11:53 AM 37.0 °F 34.5 °F 34.0 °F 89% 30.27 in 10.0 mi Variable 3.5 mph - N/A   Overcast
12:53 PM 34.0 °F 29.8 °F 30.9 °F 89% 30.35 in 10.0 mi Variable 4.6 mph - N/A   Overcast
1:10 PM 33.8 °F - 30.2 °F 87% 30.31 in 10.0 mi Calm Calm - N/A   Overcast
1:53 PM 34.0 °F - 30.0 °F 85% 30.35 in 10.0 mi Calm Calm - N/A   Overcast
2:46 PM 33.8 °F 29.6 °F 30.2 °F 87% 30.34 in 1.8 mi Variable 4.6 mph - 0.01 in Snow Light Snow
2:53 PM 33.1 °F 28.7 °F 30.0 °F 89% 30.38 in 1.2 mi Variable 4.6 mph - 0.01 in Snow Light Snow
3:01 PM 33.8 °F 30.8 °F 30.2 °F 87% 30.34 in 1.0 mi Variable 3.5 mph - 0.01 in Snow Light Snow
3:12 PM 33.8 °F 30.8 °F 30.2 °F 87% 30.34 in 1.2 mi Variable 3.5 mph - 0.01 in Snow Light Snow
3:23 PM 33.8 °F - 30.2 °F 87% 30.35 in 2.0 mi Calm Calm - 0.01 in Snow Light Snow
3:31 PM 33.8 °F 30.8 °F 28.4 °F 81% 30.36 in 1.5 mi Variable 3.5 mph - 0.02 in Snow Light Snow
3:36 PM 33.8 °F 30.8 °F 28.4 °F 81% 30.35 in 1.0 mi Variable 3.5 mph - 0.02 in Snow Light Snow
3:43 PM 33.8 °F 29.6 °F 30.2 °F 87% 30.34 in 0.8 mi Variable 4.6 mph - 0.03 in Snow Light Snow
3:53 PM 33.1 °F 30.0 °F 30.0 °F 89% 30.40 in 0.5 mi Variable 3.5 mph - 0.04 in Fog , Snow Snow
4:26 PM 33.8 °F 30.8 °F 30.2 °F 87% 30.38 in 0.8 mi Variable 3.5 mph - 0.03 in Snow Light Snow
4:34 PM 33.8 °F - 30.2 °F 87% 30.39 in 1.2 mi Calm Calm - 0.03 in Snow Light Snow
4:43 PM 33.8 °F - 30.2 °F 87% 30.38 in 1.0 mi Calm Calm - 0.03 in Snow Light Snow
4:53 PM 33.1 °F - 30.0 °F 89% 30.43 in 1.0 mi Calm Calm - 0.03 in Snow Light Snow
5:21 PM 33.8 °F - 30.2 °F 87% 30.39 in 1.2 mi Calm Calm - 0.01 in Snow Light Snow
5:38 PM 33.8 °F - 30.2 °F 87% 30.40 in 1.0 mi Calm Calm - 0.01 in Snow Light Snow
5:45 PM 33.8 °F 30.8 °F 30.2 °F 87% 30.40 in 1.2 mi ESE 3.5 mph - 0.01 in Snow Light Snow
5:53 PM 33.1 °F 30.0 °F 30.0 °F 89% 30.45 in 1.8 mi ESE 3.5 mph - 0.01 in Snow Light Snow
6:00 PM 33.8 °F - 30.2 °F 87% 30.40 in 3.0 mi Calm Calm - 0.00 in Snow Light Snow
6:53 PM 33.1 °F - 30.9 °F 92% 30.46 in 6.0 mi Calm Calm - 0.01 in Snow Light Snow
7:12 PM 33.8 °F - 30.2 °F 87% 30.43 in 1.8 mi Calm Calm - 0.00 in Snow Light Snow
7:25 PM 33.8 °F - 30.2 °F 87% 30.42 in 1.0 mi Calm Calm - 0.00 in Snow Light Snow
7:33 PM 33.8 °F - 30.2 °F 87% 30.42 in 0.5 mi Calm Calm - 0.00 in Fog , Snow Snow
7:49 PM 33.8 °F - 30.2 °F 87% 30.42 in 0.5 mi Calm Calm - 0.01 in Fog , Snow Snow
7:53 PM 33.1 °F - 30.9 °F 92% 30.48 in 0.8 mi Calm Calm - 0.02 in Snow Light Snow
8:02 PM 33.8 °F - 30.2 °F 87% 30.44 in 1.2 mi Calm Calm - 0.00 in Snow Light Snow
8:17 PM 33.8 °F - 30.2 °F 87% 30.44 in 3.0 mi Calm Calm - 0.00 in Snow Light Snow
8:24 PM 33.8 °F - 30.2 °F 87% 30.43 in 4.0 mi Calm Calm - 0.00 in Snow Light Snow
8:53 PM 34.0 °F - 30.9 °F 89% 30.49 in 9.0 mi Calm Calm - 0.00 in   Overcast
9:35 PM 33.8 °F 28.6 °F 30.2 °F 87% 30.46 in 2.5 mi Variable 5.8 mph - 0.00 in Snow Light Snow
9:44 PM 33.8 °F 29.6 °F 30.2 °F 87% 30.46 in 1.2 mi Variable 4.6 mph - 0.00 in Snow Light Snow
9:53 PM 33.1 °F 30.0 °F 30.0 °F 89% 30.51 in 1.0 mi Variable 3.5 mph - 0.01 in Snow Light Snow
10:04 PM 33.8 °F 30.8 °F 30.2 °F 87% 30.46 in 0.8 mi Variable 3.5 mph - 0.01 in Snow Light Snow
10:18 PM 33.8 °F - 30.2 °F 87% 30.47 in 0.5 mi Calm Calm - 0.04 in Fog , Snow Snow
10:53 PM 33.1 °F - 30.9 °F 92% 30.52 in 1.0 mi Calm Calm - 0.07 in Snow Light Snow
11:07 PM 33.8 °F - 30.2 °F 87% 30.46 in 1.2 mi Calm Calm - 0.01 in Snow Light Snow
11:25 PM 33.8 °F 30.8 °F 30.2 °F 87% 30.46 in 1.5 mi Variable 3.5 mph - 0.02 in Snow Light Snow
11:40 PM 33.8 °F 29.6 °F 30.2 °F 87% 30.47 in 2.5 mi Variable 4.6 mph - 0.02 in Snow Light Snow
11:45 PM 33.8 °F 29.6 °F 30.2 °F 87% 30.47 in 3.0 mi Variable 4.6 mph - 0.02 in Snow Light Snow
11:53 PM 33.1 °F 28.7 °F 30.0 °F 89% 30.51 in 5.0 mi Variable 4.6 mph - 0.02 in Snow Light Snow